Home   Weather   Steyr   Past weeks

Flag for Austria Past Weather in Steyr, Upper Austria, Austria — Yesterday and Last 2 Weeks

Now
24 °F

Fog.


Feels Like: 24 °F
Forecast: 23 / 38 °F
Wind: 1 mph from Southwest

Location: Kremsmuenster

Current Time: Dec 4, 2016 at 11:23:02 am

Latest Report: Dec 4, 2016 at 10:00 am


Visibility: 2 mi

Pressure: 30.44 "Hg

Humidity: 92%

Dew Point: 22 °F

Location of SteyrLocation

Past Weather in Steyr — Graph

°F

Steyr Temperature Yesterday

Maximum temperature yesterday: 34 °F (at 12:00 am)
Minimum temperature yesterday: 26 °F (at 9:00 am)
Average temperature yesterday: 29 °F

High & Low Weather Summary for the Past Weeks

 TemperatureHumidityPressure
High53 °F (Nov 22, 2:00 pm)99% (Nov 21, 11:00 am)30.61 "Hg (Nov 21, 11:00 am)
Low22 °F (Dec 4, 8:00 am)45% (Dec 1, 7:00 pm)29.78 "Hg (Nov 21, 3:00 pm)
Average38 °F85%30.16 "Hg
* Reported Nov 19 10:00 am — Dec 4 10:00 am, Steyr, Weather by CustomWeather, © 2016

Note: Actual official high and low records may vary slightly from our data, if they occured in-between our weather recording intervals... More about our weather records

Advertising

Steyr Weather History for the Previous 24 Hours

Scroll right to see more
 ConditionsComfort  
Time TempWeatherWind HumidityBarometerVisibility
10:00 am
Sun, Dec 4
24 °FFog.1 mph92%30.44 "Hg2 mi
9:00 am22 °FCold.1 mph93%30.44 "HgN/A
8:00 am22 °FCold.2 mph91%30.42 "HgN/A
7:00 am22 °FCold.1 mph89%30.40 "HgN/A
6:00 am22 °FCold.1 mph90%30.40 "HgN/A
5:00 am23 °FCold.2 mph90%30.40 "HgN/A
4:00 am23 °FCold.1 mph90%30.40 "HgN/A
3:00 am24 °FCold.3 mph89%30.40 "HgN/A
2:00 am24 °FCold.2 mph89%30.40 "HgN/A
1:00 am25 °FChilly.3 mph90%30.38 "HgN/A
12:00 am25 °FChilly.3 mph89%30.38 "HgN/A
11:00 pm
Sat, Dec 3
26 °FChilly.5 mph91%30.37 "HgN/A
10:00 pm26 °FChilly.3 mph91%30.37 "HgN/A
9:00 pm27 °FChilly.3 mph92%30.36 "HgN/A
8:00 pm27 °FChilly.3 mph93%30.35 "HgN/A
7:00 pm28 °FFog.2 mph91%30.34 "Hg12 mi
6:00 pm29 °FChilly.3 mph89%30.33 "HgN/A
5:00 pm31 °FChilly.3 mph81%30.32 "HgN/A
4:00 pm31 °FPassing clouds.2 mph83%30.31 "Hg25 mi
3:00 pm32 °FChilly.5 mph93%30.31 "HgN/A
2:00 pm30 °FChilly.2 mph95%30.31 "HgN/A
1:00 pm29 °FChilly.2 mph95%30.32 "HgN/A
12:00 pm27 °FChilly.2 mph96%30.34 "HgN/A
11:00 am27 °FChilly.2 mph96%30.35 "HgN/A
Weather by CustomWeather, © 2016

See weather overviewHow to use our weather pages